• In Hungary
  • List of Countries
  • For 7 days
  • Water Temperature
  • Satellite Maps
  • Weather Map
  • News
  • Weather Widgets
  • user-avatar
    Login

    Hourly Weather Elista

    Today, 25 June, Monday

    Time Temperature Precipitation Wind Pressure Humidity
    00:00 +26°C° 0.1 mm 2 mps 744 mmHg 50%
    01:00 +26°C° 0 mm 3 mps 744 mmHg 53%
    02:00 +25°C° 0 mm 3 mps 744 mmHg 56%
    03:00 +23°C° 0 mm 4 mps 744 mmHg 63%
    04:00 +25°C° 0 mm 4 mps 744 mmHg 62%
    05:00 +25°C° 0 mm 4 mps 744 mmHg 61%
    06:00 +26°C° 0 mm 4 mps 745 mmHg 60%
    07:00 +28°C° 0 mm 4 mps 745 mmHg 50%
    08:00 +30°C° 0 mm 4 mps 745 mmHg 41%
    09:00 +33°C° 0 mm 4 mps 745 mmHg 32%
    10:00 +34°C° 0 mm 4 mps 745 mmHg 27%
    11:00 +36°C° 0 mm 4 mps 745 mmHg 23%
    12:00 +37°C° 0 mm 4 mps 744 mmHg 19%
    13:00 +37°C° 0 mm 4 mps 744 mmHg 18%
    14:00 +38°C° 0 mm 4 mps 744 mmHg 17%
    15:00 +40°C° 0 mm 4 mps 743 mmHg 16%
    16:00 +38°C° 0 mm 4 mps 743 mmHg 17%
    17:00 +38°C° 0 mm 4 mps 743 mmHg 17%
    18:00 +38°C° 0 mm 4 mps 743 mmHg 17%
    19:00 +36°C° 0 mm 4 mps 743 mmHg 19%
    20:00 +34°C° 0 mm 3 mps 743 mmHg 21%
    21:00 +31°C° 0 mm 3 mps 743 mmHg 23%
    22:00 +30°C° 0 mm 3 mps 743 mmHg 25%
    23:00 +29°C° 0 mm 3 mps 743 mmHg 27%

    Tomorrow, 26 June, Tuesday

    Time Temperature Precipitation Wind Pressure Humidity
    00:00 +28°C° 0 mm 3 mps 743 mmHg 29%
    01:00 +27°C° 0 mm 3 mps 743 mmHg 31%
    02:00 +26°C° 0 mm 2 mps 743 mmHg 32%
    03:00 +25°C° 0 mm 2 mps 742 mmHg 34%
    04:00 +26°C° 0 mm 2 mps 743 mmHg 34%
    05:00 +27°C° 0 mm 2 mps 743 mmHg 34%
    06:00 +27°C° 0 mm 3 mps 743 mmHg 33%
    07:00 +29°C° 0 mm 3 mps 743 mmHg 29%
    08:00 +33°C° 0 mm 4 mps 743 mmHg 25%
    09:00 +35°C° 0 mm 5 mps 743 mmHg 20%
    10:00 +36°C° 0 mm 5 mps 743 mmHg 19%
    11:00 +37°C° 0 mm 5 mps 743 mmHg 18%
    12:00 +39°C° 0 mm 5 mps 743 mmHg 16%
    13:00 +39°C° 0 mm 6 mps 742 mmHg 16%
    14:00 +40°C° 0 mm 6 mps 742 mmHg 16%
    15:00 +40°C° 0 mm 6 mps 742 mmHg 15%
    16:00 +40°C° 0 mm 6 mps 742 mmHg 16%
    17:00 +39°C° 0 mm 6 mps 741 mmHg 17%
    18:00 +39°C° 0 mm 6 mps 741 mmHg 17%
    19:00 +36°C° 0 mm 5 mps 741 mmHg 20%
    20:00 +34°C° 0 mm 4 mps 741 mmHg 22%
    21:00 +33°C° 0 mm 4 mps 741 mmHg 24%
    22:00 +31°C° 0 mm 3 mps 741 mmHg 25%
    23:00 +30°C° 0 mm 3 mps 741 mmHg 27%

    Day after tomorrow, 27 June, Wednesday

    Time Temperature Precipitation Wind Pressure Humidity
    00:00 +30°C° 0 mm 3 mps 741 mmHg 28%
    01:00 +29°C° 0 mm 3 mps 741 mmHg 29%
    02:00 +29°C° 0 mm 3 mps 741 mmHg 30%
    03:00 +29°C° 0 mm 3 mps 741 mmHg 31%
    04:00 +29°C° 0 mm 3 mps 741 mmHg 32%
    05:00 +29°C° 0 mm 3 mps 741 mmHg 32%
    06:00 +29°C° 0 mm 4 mps 741 mmHg 33%
    07:00 +30°C° 0 mm 6 mps 742 mmHg 31%
    08:00 +32°C° 0 mm 7 mps 742 mmHg 30%
    09:00 +33°C° 0 mm 9 mps 742 mmHg 28%
    10:00 +34°C° 0 mm 9 mps 742 mmHg 26%
    11:00 +35°C° 0 mm 9 mps 742 mmHg 25%
    12:00 +37°C° 0 mm 9 mps 742 mmHg 23%
    13:00 +37°C° 0 mm 9 mps 742 mmHg 23%
    14:00 +37°C° 0 mm 9 mps 742 mmHg 22%
    15:00 +38°C° 0 mm 8 mps 742 mmHg 21%
    16:00 +37°C° 0 mm 8 mps 742 mmHg 22%
    17:00 +35°C° 0 mm 7 mps 742 mmHg 23%
    18:00 +35°C° 0 mm 6 mps 742 mmHg 23%
    19:00 +33°C° 0 mm 5 mps 742 mmHg 26%
    20:00 +30°C° 0 mm 4 mps 742 mmHg 29%
    21:00 +29°C° 0 mm 3 mps 743 mmHg 32%
    22:00 +28°C° 0 mm 3 mps 743 mmHg 34%
    23:00 +28°C° 0 mm 3 mps 743 mmHg 35%

    28 June, Thursday

    Time Temperature Precipitation Wind Pressure Humidity
    00:00 +27°C° 0 mm 3 mps 743 mmHg 36%
    01:00 +27°C° 0 mm 3 mps 742 mmHg 38%
    02:00 +26°C° 0 mm 3 mps 742 mmHg 39%
    03:00 +26°C° 0 mm 3 mps 742 mmHg 41%
    04:00 +27°C° 0 mm 3 mps 742 mmHg 42%
    05:00 +27°C° 0 mm 3 mps 742 mmHg 43%
    06:00 +28°C° 0 mm 3 mps 742 mmHg 43%
    07:00 +30°C° 0 mm 4 mps 742 mmHg 38%
    08:00 +33°C° 0 mm 4 mps 742 mmHg 32%
    09:00 +36°C° 0 mm 5 mps 743 mmHg 26%
    10:00 +37°C° 0 mm 5 mps 742 mmHg 24%
    11:00 +39°C° 0 mm 6 mps 742 mmHg 22%
    12:00 +40°C° 0 mm 6 mps 742 mmHg 20%
    13:00 +40°C° 0 mm 6 mps 741 mmHg 19%
    14:00 +40°C° 0 mm 6 mps 741 mmHg 19%
    15:00 +41°C° 0 mm 6 mps 741 mmHg 19%
    16:00 +40°C° 0 mm 5 mps 741 mmHg 19%
    17:00 +40°C° 0 mm 5 mps 741 mmHg 20%
    18:00 +40°C° 0 mm 5 mps 741 mmHg 21%
    19:00 +37°C° 0 mm 5 mps 741 mmHg 23%
    20:00 +35°C° 0 mm 5 mps 741 mmHg 25%
    21:00 +34°C° 0 mm 4 mps 741 mmHg 27%
    22:00 +33°C° 0 mm 4 mps 741 mmHg 28%
    23:00 +32°C° 0 mm 4 mps 740 mmHg 29%

    29 June, Friday

    Time Temperature Precipitation Wind Pressure Humidity
    00:00 +29°C° 0 mm 3 mps 740 mmHg 31%
    01:00 +29°C° 0 mm 3 mps 740 mmHg 33%
    02:00 +28°C° 0 mm 3 mps 740 mmHg 36%
    03:00 +27°C° 0 mm 3 mps 740 mmHg 39%
    04:00 +27°C° 0 mm 3 mps 740 mmHg 40%
    05:00 +28°C° 0 mm 3 mps 740 mmHg 41%
    06:00 +28°C° 0 mm 4 mps 740 mmHg 41%
    07:00 +30°C° 0 mm 4 mps 740 mmHg 37%
    08:00 +33°C° 0 mm 5 mps 740 mmHg 32%
    09:00 +35°C° 0 mm 6 mps 740 mmHg 27%
    10:00 +38°C° 0 mm 6 mps 740 mmHg 25%
    11:00 +39°C° 0 mm 7 mps 739 mmHg 22%
    12:00 +41°C° 0 mm 7 mps 739 mmHg 19%
    13:00 +41°C° 0 mm 7 mps 739 mmHg 19%
    14:00 +41°C° 0 mm 6 mps 738 mmHg 18%
    15:00 +42°C° 0 mm 6 mps 738 mmHg 17%
    16:00 +42°C° 0 mm 6 mps 738 mmHg 18%
    17:00 +41°C° 0 mm 6 mps 738 mmHg 18%
    18:00 +41°C° 0 mm 6 mps 738 mmHg 18%
    19:00 +39°C° 0 mm 5 mps 738 mmHg 21%
    20:00 +36°C° 0 mm 4 mps 738 mmHg 23%
    21:00 +34°C° 0 mm 4 mps 738 mmHg 25%
    22:00 +33°C° 0 mm 4 mps 738 mmHg 28%
    23:00 +32°C° 0 mm 4 mps 738 mmHg 30%

    30 June, Saturday

    Time Temperature Precipitation Wind Pressure Humidity
    00:00 +30°C° 0 mm 4 mps 738 mmHg 32%
    01:00 +29°C° 0 mm 4 mps 738 mmHg 37%
    02:00 +28°C° 0 mm 4 mps 738 mmHg 41%
    03:00 +27°C° 0 mm 4 mps 738 mmHg 46%
    04:00 +27°C° 0 mm 4 mps 738 mmHg 47%
    05:00 +27°C° 0 mm 4 mps 738 mmHg 48%
    06:00 +28°C° 0 mm 4 mps 739 mmHg 49%
    07:00 +30°C° 0 mm 5 mps 739 mmHg 42%
    08:00 +33°C° 0 mm 5 mps 739 mmHg 36%
    09:00 +36°C° 0 mm 6 mps 739 mmHg 29%
    10:00 +38°C° 0 mm 6 mps 739 mmHg 26%
    11:00 +40°C° 0 mm 7 mps 738 mmHg 23%
    12:00 +41°C° 0 mm 7 mps 738 mmHg 19%
    13:00 +43°C° 0 mm 7 mps 738 mmHg 19%
    14:00 +43°C° 0 mm 7 mps 737 mmHg 18%
    15:00 +44°C° 0 mm 7 mps 737 mmHg 17%
    16:00 +43°C° 0 mm 7 mps 737 mmHg 17%
    17:00 +43°C° 0 mm 7 mps 737 mmHg 17%
    18:00 +41°C° 0 mm 7 mps 736 mmHg 18%
    19:00 +40°C° 0 mm 7 mps 736 mmHg 20%
    20:00 +38°C° 0 mm 7 mps 737 mmHg 22%
    21:00 +35°C° 0 mm 6 mps 737 mmHg 24%
    22:00 +34°C° 0 mm 6 mps 737 mmHg 27%
    23:00 +32°C° 0 mm 5 mps 737 mmHg 31%
    Show more